If you wish to contribute or participate in the discussions about articles you are invited to join SKYbrary as a registered user

 Actions

Olympic Dam Airport

From SKYbrary Wiki

YOLD
Airport
ICAO: YOLD – IATA: OLP
Summary
Name Olympic Dam Airport
Region Asia and Pacific
Territory Australia AU.gif
Location Olympic Dam, South Australia
Serving Olympic Dam
Elevation 104.546 m
343 ft
343 ft104.546 m
Type small airport
Coordinates 30° 29' 6.00" S, 136° 52' 37.20" E
Runways
Designator Length Width Surface ROPS
6/24 1591 m5,219.816 ft
30 m98.425 ft
ASP /


METAR
Observation YOLD 252100Z AUTO 17008KT 9999 // NCD 23/10 Q1012
Station Olympic Dam Airport
Date/Time 25 February 2020 21:00:00
Wind direction 170°
Wind speed 08 kts
Lowest cloud amount no clouds detected
Temperature 23°C
Dew point 10°C
Humidity 43%
QNH 1012 hPa
Weather condition n/a